Regional Weather Roundup
Issued by NWS

Home | Current Version | Previous Version | Text Only | Print | Product List | Glossary Off
Versions: 1 2 3 4 5 6 7 8 9 10 11 12 13 14 15 16 17 18 19 20 21 22 23 24 25 26 27 28

000
ASUS45 KSLC 300310
RWRUT

UTAH REGIONAL WEATHER ROUNDUP
NATIONAL WEATHER SERVICE SALT LAKE CITY UT
900 PM MDT THU SEP 29 2016

UTZ001>011-023>025-300400-

NORTHERN UTAH

CITY           SKY/WX    TMP DP  RH WIND       PRES   REMARKS
BRIGHAM CITY     N/A     61  54  76 CALM      30.19R
HILL AFB       PTCLDY    63  50  62 SE5       30.20R
LOGAN          CLEAR     60  52  74 CALM      30.19R
OGDEN          CLEAR     63  52  67 CALM      30.18R
PROVO AIRPORT  PTCLDY    68  49  50 S13       30.22R
SALT LAKE CITY PTCLDY    64  52  64 E5        30.18R
VERNAL         CLOUDY    60  56  86 W5        30.33R
WENDOVER       MOCLDY   N/A N/A N/A NW13G20   30.18
HEBER CITY     MOCLDY    63  45  51 S6        30.26R
WEST JORDAN    CLEAR     62  49  61 CALM      30.21R

$$

UTZ012>022-026-027-300400-

SOUTHERN/CENTRAL UTAH

CITY           SKY/WX    TMP DP  RH WIND       PRES   REMARKS
BLANDING       CLOUDY    55  54  94 NE5       30.47R
BRYCE CANYON   CLOUDY    50  47  89 SE7       30.44R
CEDAR CITY     PTCLDY    61  48  62 SW6       30.28R
DELTA          PTCLDY    64  41  42 S6        30.21R
MILFORD        PTCLDY    68  46  45 S9        30.23R
MOAB/CYNLANDS  CLOUDY    61  56  83 NW12      30.31R
PRICE          CLOUDY    55  51  86 W3        30.37R
ST GEORGE      PTCLDY    73  54  49 SE14      30.18R

$$

REGIONAL REPORTS     COLORADO/ARIZONA

CITY           SKY/WX    TMP DP  RH WIND       PRES   REMARKS
CRAIG, CO      CLOUDY    55  50  83 E5        30.38S
GRAND JUNCTION CLOUDY    61  54  77 E6        30.33S
RIFLE          CLOUDY    61  54  77 CALM      30.37R
MONTROSE       LGT RAIN  59  51  75 W3        30.40S
CORTEZ         LGT RAIN  56  53  90 CALM      30.41R
PAGE, AZ       LGT RAIN  64  59  83 NE5       30.29R
GRAND CANYON   CLOUDY    54  50  86 CALM      30.40R
KINGMAN        CLOUDY    74  47  38 S6        30.16R
FLAGSTAFF      CLEAR     48  47  96 CALM      30.41R

$$

REGIONAL REPORTS    NEVADA/IDAHO/WYOMING

CITY           SKY/WX    TMP DP  RH WIND       PRES   REMARKS
LAS VEGAS, NV  PTCLDY    85  46  25 SE5       30.04R
ELY            PTCLDY    54  38  54 S8        30.29R
ELKO           CLOUDY    64  44  48 SW7       30.19R
POCATELLO, ID  PTCLDY    65  47  52 E5        30.16R
EVANSTON, WY   CLOUDY    57  41  55 SW6       30.34R
ROCK SPRINGS   CLOUDY    56  44  64 SE16G22   30.33R

$$




USA.gov is the U.S. government's official web portal to all federal, state and local government web resources and services.